Regional Weather Roundup
Issued by NWS

Home | Current Version | Previous Version | Graphics & Text | Print | Product List | Glossary Off
Versions: 1 2 3 4 5 6 7 8 9 10 11 12 13 14 15 16 17 18 19 20 21 22 23 24 25 26 27 28 29 30 31 32 33 34 35 36 37 38 39 40 41 42 43 44 45 46 47 48 49 50

000
ASUS43 KDTX 252310
RWRMI
MICHIGAN HOURLY REGIONAL WEATHER ROUNDUP
NATIONAL WEATHER SERVICE DETROIT/PONTIAC MI
700 PM EDT FRI JUL 25 2014

NOTE: "FAIR" INDICATES FEW OR NO CLOUDS BELOW 12,000 FEET WITH NO
SIGNIFICANT WEATHER AND/OR OBSTRUCTION TO VISIBILITY.

MIZ047>049-052>055-059>063-066>070-074>076-081>083-260000-
SOUTHEAST LOWER MICHIGAN

CITY           SKY/WX    TMP DP  RH WIND       PRES   REMARKS
ADRIAN         CLOUDY    72  55  55 SW8       30.00R
ALMA           CLOUDY    71  55  57 SW3       29.97S
ANN ARBOR      CLOUDY    74  52  46 W10       29.98R
BAD AXE        PTSUNNY   71  52  51 SW3       29.95F
CARO           CLOUDY    73  56  55 SW5       29.96R
DETROIT CITY   PTSUNNY   77  54  44 S12       29.97R
DETROIT        CLOUDY    75  54  47 SW9       29.98R
FLINT          CLOUDY    73  55  53 SW7       29.97S
GROSSE ILE     PTSUNNY   73  59  60 S7        29.96S
HILLSDALE      LGT RAIN  70  56  61 W5        30.00S
HOWELL         CLOUDY    72  52  49 W5        29.98S

CITY           SKY/WX    TMP DP  RH WIND       PRES   REMARKS
JACKSON        CLOUDY    70  55  59 SW9       29.99S
LAMBERTVILLE   CLOUDY    73  54  49 SW8       29.99S
LANSING        CLOUDY    73  51  46 W13       29.99R
LAPEER         FAIR      74  49  42 W3        29.97S
MASON          CLOUDY    72  55  54 W3        29.98F
MONROE         PTSUNNY   75  54  46 SW7       29.97R
MT. CLEMENS    CLOUDY    74  56  53 SW9       29.95R
PONTIAC        CLOUDY    74  52  46 W8        29.97R
PORT HOPE        N/A     75  52  44 MISG      29.92F
PORT HURON     CLOUDY    72  57  60 S9        29.97S
TRI CITIES     CLOUDY    74  56  53 SW8       29.97R
TROY           CLOUDY    76  51  40 W6        29.98R
SAGINAW HB     CLOUDY    73  54  49 W6        29.96S
$$
MIZ043>046-050>051-056>058-064>065-071>073-077>080-260000-
SOUTHWEST LOWER MICHIGAN

CITY           SKY/WX    TMP DP  RH WIND       PRES   REMARKS
BATTLE CREEK   LGT RAIN  71  56  58 SW7       29.99F
BENTON HARBOR  CLOUDY    70  58  65 S5        29.95F
BIG RAPIDS     PTSUNNY   71  54  54 W7        29.95F
COLDWATER      CLOUDY    70  59  69 SW3       29.99S
FREMONT        CLOUDY    70  55  57 SW12      29.95F
HOLLAND        CLOUDY    71  60  68 S3        29.97F
GRAND RAPIDS   CLOUDY    73  57  57 SW7       29.97S
IONIA          CLOUDY    73  54  51 SW9       29.95F
KALAMAZOO      LGT RAIN  70  57  63 S6        29.98F
LUDINGTON      CLOUDY    69  60  73 SW13G20   29.94F
MARSHALL       CLOUDY    68  56  65 SW5       29.98F
MOUNT PLEASANT CLOUDY    73  58  58 SW5       29.95F
MUSKEGON       PTSUNNY   71  57  61 VRB5      29.96F
SOUTH HAVEN    CLOUDY    70  61  73 S3        29.96F
$$
MIZ016>042-260000-
NORTHERN LOWER MICHIGAN

CITY           SKY/WX    TMP DP  RH WIND       PRES   REMARKS
ALPENA         CLOUDY    75  58  55 SW6       29.88F
BEAVER ISLAND  CLOUDY    66  58  73 SW10G16   29.89F
BELLAIRE       MOSUNNY   71  55  56 SW5       29.91F
CADILLAC       CLOUDY    67  55  64 SW10      29.95F
CHARLEVOIX     PTSUNNY   72  56  56 SW7G20    29.94S
FRANKFORT      CLOUDY    69  55  60 S13G20    29.93S
GAYLORD        CLOUDY    71  53  52 W15       29.93S
GRAYLING       PTSUNNY   71  57  60 W7        29.95S
HARBOR SPRINGS PTSUNNY   70  58  64 W7        29.91S
HOUGHTON LAKE  LGT RAIN  67  59  75 W7        29.95S
MANISTEE       CLOUDY    70  54  56 SW13      29.93F
OSCODA         PTSUNNY   75  55  50 S10       29.91S
PELLSTON       PTSUNNY   71  54  54 W12G18    29.90F
ROGERS CITY    PTSUNNY   69  58  69 N5        29.90S
TRAVERSE CITY  CLOUDY    72  54  53 S5        29.90F
$$
MIZ007>008-015-260000-
EASTERN UPPER MICHIGAN

CITY           SKY/WX    TMP DP  RH WIND       PRES   REMARKS
KINROSS        MOSUNNY   70  59  68 W7G16     29.87S
MACKINAC ISLAN MOSUNNY   65  59  80 SW13G20   29.88F
NEWBERRY       PTSUNNY   67  57  69 SW17G24   29.85F
S. S. MARIE    MOSUNNY   74  56  53 SW9G20    29.85F
MUNISING         N/A     73  55  53 SW9G20    29.82R
$$
MIZ004>006-011>014-085-260000-
CENTRAL UPPER MICHIGAN

CITY           SKY/WX    TMP DP  RH WIND       PRES   REMARKS
MANISTIQUE     LGT RAIN  60  58  92 S9        29.87F
ESCANABA       CLOUDY    70  55  60 S13G23    29.85S
MENOMINEE      CLOUDY    70  57  64 SW9       29.86F
SAWYER-GWINN   CLOUDY    73  61  64 SW12      29.84S
$$
MIZ001>003-009>011-084-260000-
WESTERN UPPER MICHIGAN

CITY           SKY/WX    TMP DP  RH WIND       PRES   REMARKS
IRON MOUNTAIN  CLOUDY    70  60  70 S9        29.85S
HOUGHTON       CLOUDY    68  63  84 NW8       29.80F
COPPER HARBOR    N/A     67  62  84 CALM      29.79F
$$

ABBREVIATIONS USED IN REMARKS
   TC - TEMPERATURE IN CELSIUS
  WCI - WIND CHILL INDEX
   HX - HEAT INDEX
  VSB - VISIBILITY




USA.gov is the U.S. government's official web portal to all federal, state and local government web resources and services.